Location: Halvern
(37.6252°N, 122.0525°W)
Time: 05:28:15
(UTC+00:00)

Envisat - Visible Passes

Search period start: 14 July 2024 00:00
Search period end: 24 July 2024 00:00
Orbit: 762 x 764 km, 98.3° (Epoch: 13 July)

Date Brightness Start Highest point End Pass type
(mag) Time Alt. Az. Time Alt. Az. Time Alt. Az.
14 Jul 4.6 10:34:43 10° NE 10:39:04 28° E 10:42:37 14° SSE visible
14 Jul 4.0 12:13:35 10° N 12:17:57 30° WNW 12:22:18 10° SW visible
15 Jul 5.5 09:59:32 10° ENE 10:01:21 12° E 10:03:12 10° ESE visible
15 Jul 3.0 11:35:43 10° N 11:40:46 69° WNW 11:44:53 15° SSW visible
16 Jul 3.7 10:58:27 10° NNE 11:03:24 50° E 11:07:00 18° S visible
17 Jul 5.0 10:21:58 10° NE 10:25:48 21° E 10:29:08 12° SE visible
17 Jul 3.6 12:00:10 10° N 12:04:52 40° WNW 12:09:17 11° SW visible
18 Jul 3.0 11:22:31 10° NNE 11:27:37 88° ESE 11:31:24 18° SSW visible
19 Jul 4.2 10:45:28 10° NNE 10:50:09 37° E 10:53:31 17° SSE visible
19 Jul 4.3 12:24:54 10° NNW 12:28:52 24° WNW 12:32:50 10° WSW visible
20 Jul 5.4 10:09:28 10° NE 10:12:30 16° E 10:15:31 10° SE visible
20 Jul 3.2 11:46:49 10° N 11:51:45 53° WNW 11:55:47 15° SW visible
21 Jul 3.3 11:09:23 10° NNE 11:14:25 66° ESE 11:17:54 20° S visible
22 Jul 4.6 10:32:35 10° NE 10:36:54 28° E 10:40:00 16° SE visible
22 Jul 4.0 12:11:23 10° N 12:15:48 31° WNW 12:20:09 10° SW visible
23 Jul 5.6 09:57:34 10° ENE 09:59:10 11° E 10:00:45 10° ESE visible
23 Jul 3.0 11:33:32 10° N 11:38:36 72° WNW 11:42:15 19° SSW visible
